Location: Unspecified
(0.0000°N, 0.0000°E)
Time: 18:53:24
(UTC+00:00)

SRMSAT - Pass Details

Date: 30 May 2020
Orbit: 848 x 866 km, 20.0° (Epoch: 06 July)

Event Time Altitude Azimuth Distance (km) Brightness Sun altitude
Exits shadow 03:22:36 15° 133° (SE) 2,186 ? -35.5°
Drops below altitude 10° 03:23:32 10° 129° (SE) 2,495 ? -35.3°
Sets 03:26:14 0° 123° (ESE) 3,433 ? -34.7°
